Weather History for KADG - January, 2013

Change the Weather History Date:

Wednesday, January 9, 2013

  Actual Average Record
Temperature  
Mean Temperature 36 °F -  
Max Temperature 45 °F 28 °F 56 °F (1949)
Min Temperature 26 °F 14 °F -14 °F (2014)
Degree Days  
Heating Degree Days 30    
Moisture  
Dew Point 26 °F    
Average Humidity 66    
Maximum Humidity 92    
Minimum Humidity 42    
Precipitation  
Precipitation 0.00 in - - ()
Sea Level Pressure  
Sea Level Pressure 30.25 in    
Wind  
Wind Speed 9 mph (West)    
Max Wind Speed 17 mph    
Max Gust Speed 30 mph    
Visibility 9 miles    
Events Rain    
Averages and records for this station are not official NWS values.
T = Trace of Precipitation, MM = Missing Value Source: NWS Daily Summary

Daily Weather History Graph

Daily Weather History Graph

Search for Another Location

Airport or City:

Trip Planner

Search our weather history database for the weather conditions in past years. The results will help you decide how hot, cold, wet, or windy it might be!

Date:

Astronomy

Jan. 09, 2013 Rise Set
Actual Time 8:03 AM EST 5:24 PM EST
Civil Twilight 7:32 AM EST 5:55 PM EST
Nautical Twilight 6:57 AM EST 6:29 PM EST
Astronomical Twilight 6:24 AM EST 7:03 PM EST
Moon 5:41 AM EST (1/9) 3:24 PM EST (1/9)
Length of Visible Light 10h 22m
Length of Day
9h 20m
Waning Crescent, 6% of the Moon is Illuminated
Jan 9
Waning Crescent
Jan 11
New
Jan 18
First Quarter
Jan 26
Full
Feb 3
Last Quarter

Hourly Weather History & Observations

Time (EST) Temp. Windchill Dew Point Humidity Pressure Visibility Wind Dir Wind Speed Gust Speed Precip Events Conditions
12:53 AM 27.0 °F 21.6 °F 23.0 °F 85% 30.19 in 5.0 mi SW 4.6 mph - N/A   Clear
1:53 AM 26.1 °F 20.5 °F 23.0 °F 88% 30.15 in 5.0 mi SSW 4.6 mph - N/A   Clear
2:53 AM 27.0 °F 21.6 °F 24.1 °F 89% 30.16 in 5.0 mi SSW 4.6 mph - N/A   Partly Cloudy
3:53 AM 26.1 °F 21.9 °F 24.1 °F 92% 30.14 in 4.0 mi WSW 3.5 mph - N/A   Mostly Cloudy
4:53 AM 32.0 °F 24.8 °F 27.0 °F 82% 30.12 in 6.0 mi WSW 8.1 mph - N/A   Haze
5:53 AM 36.0 °F 28.5 °F 30.0 °F 79% 30.12 in 8.0 mi WSW 10.4 mph - 0.00 in Rain Light Rain
7:53 AM 37.9 °F 30.0 °F 32.0 °F 79% 30.12 in 10.0 mi WSW 12.7 mph - N/A   Clear
8:53 AM 39.0 °F 31.4 °F 32.0 °F 76% 30.15 in 10.0 mi West 12.7 mph 19.6 mph N/A   Clear
9:53 AM 41.0 °F 33.1 °F 32.0 °F 70% 30.19 in 10.0 mi West 15.0 mph 21.9 mph N/A   Clear
10:53 AM 41.0 °F 32.5 °F 30.9 °F 67% 30.21 in 10.0 mi West 17.3 mph 25.3 mph N/A   Clear
11:53 AM 42.1 °F 35.2 °F 30.0 °F 62% 30.21 in 10.0 mi West 12.7 mph 19.6 mph N/A   Clear
1:53 PM 43.0 °F 36.0 °F 28.9 °F 58% 30.20 in 10.0 mi West 13.8 mph 24.2 mph N/A   Clear
2:53 PM 44.1 °F 37.4 °F 27.0 °F 51% 30.23 in 10.0 mi West 13.8 mph 29.9 mph N/A   Clear
3:53 PM 45.0 °F 38.5 °F 26.1 °F 48% 30.26 in 10.0 mi West 13.8 mph 24.2 mph N/A   Clear
4:53 PM 45.0 °F 39.3 °F 23.0 °F 42% 30.29 in 10.0 mi WNW 11.5 mph 24.2 mph N/A   Clear
5:53 PM 43.0 °F 35.7 °F 21.9 °F 43% 30.32 in 10.0 mi WNW 15.0 mph 20.7 mph N/A   Clear
6:53 PM 41.0 °F 34.3 °F 21.9 °F 47% 30.37 in 10.0 mi WNW 11.5 mph - N/A   Clear
7:53 PM 39.9 °F 32.1 °F 21.9 °F 49% 30.37 in 10.0 mi NNW 13.8 mph 24.2 mph N/A   Clear
8:53 PM 39.0 °F 32.3 °F 23.0 °F 53% 30.42 in 10.0 mi WNW 10.4 mph - N/A   Clear
9:53 PM 37.0 °F 32.4 °F 23.0 °F 57% 30.43 in 10.0 mi NNW 5.8 mph - N/A   Clear
10:53 PM 34.0 °F - 24.1 °F 67% 30.46 in 10.0 mi Calm Calm - N/A   Clear
11:53 PM 33.1 °F 28.7 °F 24.1 °F 70% 30.49 in 10.0 mi WSW 4.6 mph - N/A   Clear